Time,TemperatureF,DewpointF,PressureIn,WindDirection,WindDirectionDegrees,WindSpeedMPH,WindSpeedGustMPH,Humidity,HourlyPrecipIn,Conditions,Clouds,dailyrainin,SoftwareType,DateUTC
2013-04-07 00:02:00,56.0,43.0,29.73,SW,226,0.0,0.0,62,0.00,,,0.01,,2013-04-07 05:02:00,
2013-04-07 00:12:00,56.0,43.0,29.73,SW,226,0.0,0.0,62,0.00,,,0.01,,2013-04-07 05:12:00,
2013-04-07 00:22:00,56.0,44.0,29.74,SW,226,0.0,0.0,63,0.00,,,0.01,,2013-04-07 05:22:00,
2013-04-07 00:33:00,52.0,42.0,29.75,SW,227,1.0,3.0,68,0.00,,,0.01,,2013-04-07 05:33:00,
2013-04-07 00:42:00,52.0,42.0,29.75,SW,227,1.0,3.0,68,0.00,,,0.01,,2013-04-07 05:42:00,
2013-04-07 00:52:00,54.0,44.0,29.75,SW,227,0.0,3.0,68,0.00,,,0.01,,2013-04-07 05:52:00,
2013-04-07 01:02:00,53.0,43.0,29.76,SW,227,1.0,3.0,68,0.00,,,0.01,,2013-04-07 06:02:00,
2013-04-07 01:12:00,53.0,43.0,29.76,SW,227,1.0,3.0,68,0.00,,,0.01,,2013-04-07 06:12:00,
2013-04-07 01:22:00,53.0,43.0,29.76,SW,227,1.0,3.0,68,0.00,,,0.01,,2013-04-07 06:22:00,
2013-04-07 01:32:00,53.0,43.0,29.76,SW,227,1.0,3.0,68,0.00,,,0.01,,2013-04-07 06:32:00,
2013-04-07 01:42:00,53.0,43.0,29.76,SW,227,1.0,3.0,68,0.00,,,0.01,,2013-04-07 06:42:00,
2013-04-07 03:23:00,49.0,42.0,29.77,SW,227,0.0,2.0,76,0.00,,,0.01,,2013-04-07 08:23:00,
2013-04-07 03:33:00,49.0,42.0,29.77,SW,227,0.0,2.0,76,0.00,,,0.01,,2013-04-07 08:33:00,
2013-04-07 03:43:00,49.0,42.0,29.77,SW,227,0.0,2.0,76,0.00,,,0.01,,2013-04-07 08:43:00,
2013-04-07 03:53:00,49.0,42.0,29.77,SW,227,0.0,2.0,76,0.00,,,0.01,,2013-04-07 08:53:00,
2013-04-07 04:02:00,46.0,41.0,29.77,SE,139,0.0,0.0,81,0.00,,,0.01,,2013-04-07 09:02:00,
2013-04-07 04:12:00,46.0,41.0,29.77,SE,139,0.0,0.0,81,0.00,,,0.01,,2013-04-07 09:12:00,
2013-04-07 04:22:00,46.0,41.0,29.77,East,97,2.0,5.0,82,0.00,,,0.01,,2013-04-07 09:22:00,
2013-04-07 04:33:00,46.0,40.0,29.78,ENE,72,3.0,8.0,79,0.00,,,0.01,,2013-04-07 09:33:00,
2013-04-07 04:43:00,46.0,40.0,29.78,ENE,72,3.0,8.0,79,0.00,,,0.01,,2013-04-07 09:43:00,
2013-04-07 04:53:00,45.0,39.0,29.78,East,85,5.0,8.0,78,0.00,,,0.01,,2013-04-07 09:53:00,
2013-04-07 05:03:00,45.0,39.0,29.77,East,81,5.0,8.0,79,0.00,,,0.01,,2013-04-07 10:03:00,
2013-04-07 05:13:00,45.0,39.0,29.77,East,81,5.0,8.0,79,0.00,,,0.01,,2013-04-07 10:13:00,
2013-04-07 05:23:00,45.0,39.0,29.78,East,83,4.0,8.0,80,0.00,,,0.01,,2013-04-07 10:23:00,
2013-04-07 05:33:00,44.0,38.0,29.78,East,82,3.0,7.0,80,0.00,,,0.01,,2013-04-07 10:33:00,
2013-04-07 05:43:00,44.0,38.0,29.78,East,82,3.0,7.0,80,0.00,,,0.01,,2013-04-07 10:43:00,
2013-04-07 05:53:00,43.0,38.0,29.78,East,82,0.0,2.0,81,0.00,,,0.01,,2013-04-07 10:53:00,
2013-04-07 06:03:00,41.0,37.0,29.78,East,82,0.0,0.0,84,0.00,,,0.01,,2013-04-07 11:03:00,
2013-04-07 06:12:00,41.0,37.0,29.78,East,82,0.0,0.0,84,0.00,,,0.01,,2013-04-07 11:12:00,
2013-04-07 06:22:00,41.0,37.0,29.78,East,80,0.0,1.0,86,0.00,,,0.01,,2013-04-07 11:22:00,
2013-04-07 06:32:00,41.0,37.0,29.79,East,80,0.0,0.0,85,0.00,,,0.01,,2013-04-07 11:32:00,
2013-04-07 06:42:00,41.0,37.0,29.79,East,80,0.0,0.0,85,0.00,,,0.01,,2013-04-07 11:42:00,
2013-04-07 06:52:00,40.0,36.0,29.79,East,80,0.0,0.0,87,0.00,,,0.01,,2013-04-07 11:52:00,
2013-04-07 07:02:00,40.0,37.0,29.79,East,80,0.0,0.0,88,0.00,,,0.01,,2013-04-07 12:02:00,
2013-04-07 07:12:00,40.0,37.0,29.79,East,80,0.0,0.0,88,0.00,,,0.01,,2013-04-07 12:12:00,
2013-04-07 07:22:00,40.0,37.0,29.80,East,80,2.0,4.0,88,0.00,,,0.01,,2013-04-07 12:22:00,
2013-04-07 07:34:00,39.0,36.0,29.81,East,96,3.0,5.0,89,0.00,,,0.01,,2013-04-07 12:34:00,
2013-04-07 07:43:00,39.0,36.0,29.81,East,96,3.0,5.0,89,0.00,,,0.01,,2013-04-07 12:43:00,
2013-04-07 07:53:00,40.0,37.0,29.80,East,90,4.0,6.0,89,0.00,,,0.01,,2013-04-07 12:53:00,
2013-04-07 08:03:00,40.0,36.0,29.81,East,88,4.0,6.0,87,0.00,,,0.01,,2013-04-07 13:03:00,
2013-04-07 08:13:00,40.0,36.0,29.81,East,88,4.0,6.0,87,0.00,,,0.01,,2013-04-07 13:13:00,
2013-04-07 08:22:00,41.0,37.0,29.82,East,82,1.0,7.0,87,0.00,,,0.01,,2013-04-07 13:22:00,
2013-04-07 08:32:00,41.0,37.0,29.81,ENE,70,8.0,11.0,86,0.00,,,0.01,,2013-04-07 13:32:00,
2013-04-07 08:42:00,41.0,37.0,29.81,ENE,70,8.0,11.0,86,0.00,,,0.01,,2013-04-07 13:42:00,
2013-04-07 08:52:00,41.0,37.0,29.83,NE,50,3.0,11.0,85,0.00,,,0.01,,2013-04-07 13:52:00,
2013-04-07 09:02:00,42.0,38.0,29.82,ENE,74,6.0,8.0,84,0.00,,,0.01,,2013-04-07 14:02:00,
2013-04-07 09:12:00,42.0,38.0,29.82,ENE,74,6.0,8.0,84,0.00,,,0.01,,2013-04-07 14:12:00,
2013-04-07 09:23:00,43.0,38.0,29.81,East,87,8.0,16.0,83,0.00,,,0.01,,2013-04-07 14:23:00,
2013-04-07 09:33:00,43.0,38.0,29.82,East,85,5.0,13.0,83,0.00,,,0.01,,2013-04-07 14:33:00,
2013-04-07 09:43:00,43.0,38.0,29.82,East,85,5.0,13.0,83,0.00,,,0.01,,2013-04-07 14:43:00,
2013-04-07 09:53:00,44.0,39.0,29.84,East,88,0.0,7.0,83,0.00,,,0.01,,2013-04-07 14:53:00,
2013-04-07 10:03:00,45.0,39.0,29.82,East,88,4.0,7.0,80,0.00,,,0.01,,2013-04-07 15:03:00,
2013-04-07 10:12:00,46.0,40.0,29.82,ENE,71,4.0,10.0,78,0.00,,,0.01,,2013-04-07 15:12:00,
2013-04-07 10:22:00,46.0,40.0,29.82,ENE,71,4.0,10.0,78,0.00,,,0.01,,2013-04-07 15:22:00,
2013-04-07 10:34:00,46.0,39.0,29.83,East,90,2.0,9.0,76,0.00,,,0.01,,2013-04-07 15:34:00,
2013-04-07 10:44:00,46.0,39.0,29.83,East,90,2.0,9.0,76,0.00,,,0.01,,2013-04-07 15:44:00,
2013-04-07 10:53:00,47.0,39.0,29.80,East,90,9.0,16.0,75,0.00,,,0.01,,2013-04-07 15:53:00,
2013-04-07 11:04:00,48.0,40.0,29.79,ESE,103,10.0,18.0,74,0.00,,,0.01,,2013-04-07 16:04:00,
2013-04-07 11:13:00,48.0,40.0,29.79,ESE,103,10.0,18.0,74,0.00,,,0.01,,2013-04-07 16:13:00,
2013-04-07 11:24:00,49.0,40.0,29.80,East,88,10.0,16.0,71,0.00,,,0.01,,2013-04-07 16:24:00,
2013-04-07 11:33:00,51.0,41.0,29.78,East,100,13.0,19.0,69,0.00,,,0.01,,2013-04-07 16:33:00,
2013-04-07 11:43:00,51.0,41.0,29.78,East,100,13.0,19.0,69,0.00,,,0.01,,2013-04-07 16:43:00,
2013-04-07 11:53:00,52.0,42.0,29.80,ESE,103,5.0,17.0,68,0.00,,,0.01,,2013-04-07 16:53:00,
2013-04-07 12:04:00,53.0,42.0,29.79,ESE,108,11.0,19.0,67,0.00,,,0.01,,2013-04-07 17:04:00,
2013-04-07 12:13:00,53.0,42.0,29.79,ESE,108,11.0,19.0,67,0.00,,,0.01,,2013-04-07 17:13:00,
2013-04-07 12:23:00,54.0,43.0,29.78,ESE,104,7.0,15.0,66,0.00,,,0.01,,2013-04-07 17:23:00,
2013-04-07 12:33:00,56.0,44.0,29.78,SE,128,6.0,15.0,63,0.00,,,0.01,,2013-04-07 17:33:00,
2013-04-07 12:43:00,56.0,44.0,29.78,SE,128,6.0,15.0,63,0.00,,,0.01,,2013-04-07 17:43:00,
2013-04-07 12:52:00,57.0,44.0,29.77,ESE,121,8.0,18.0,61,0.00,,,0.01,,2013-04-07 17:52:00,
2013-04-07 13:02:00,59.0,44.0,29.77,SE,129,7.0,19.0,58,0.00,,,0.01,,2013-04-07 18:02:00,
2013-04-07 13:13:00,59.0,44.0,29.77,SE,129,7.0,19.0,58,0.00,,,0.01,,2013-04-07 18:13:00,
2013-04-07 13:23:00,60.0,45.0,29.76,SE,134,5.0,14.0,58,0.00,,,0.01,,2013-04-07 18:23:00,
2013-04-07 13:33:00,60.0,45.0,29.74,ESE,109,11.0,19.0,57,0.00,,,0.00,,2013-04-07 18:33:00,
2013-04-07 13:43:00,60.0,45.0,29.74,ESE,109,11.0,19.0,57,0.00,,,0.00,,2013-04-07 18:43:00,
2013-04-07 13:52:00,60.0,45.0,29.74,ESE,111,10.0,14.0,57,0.00,,,0.00,,2013-04-07 18:52:00,
2013-04-07 14:02:00,62.0,45.0,29.74,SSE,157,7.0,12.0,54,0.00,,,0.00,,2013-04-07 19:02:00,
2013-04-07 14:12:00,62.0,45.0,29.74,SSE,157,7.0,12.0,54,0.00,,,0.00,,2013-04-07 19:12:00,
2013-04-07 14:22:00,64.0,45.0,29.73,SSE,163,7.0,14.0,50,0.00,,,0.00,,2013-04-07 19:22:00,
2013-04-07 14:32:00,65.0,45.0,29.72,SE,131,11.0,15.0,48,0.00,,,0.00,,2013-04-07 19:32:00,
2013-04-07 14:42:00,65.0,45.0,29.72,SE,131,11.0,15.0,48,0.00,,,0.00,,2013-04-07 19:42:00,
2013-04-07 14:53:00,66.0,45.0,29.72,SE,140,9.0,16.0,46,0.00,,,0.00,,2013-04-07 19:53:00,
2013-04-07 15:03:00,66.0,45.0,29.71,SSE,158,12.0,17.0,46,0.00,,,0.00,,2013-04-07 20:03:00,
2013-04-07 15:13:00,66.0,45.0,29.71,SSE,158,12.0,17.0,46,0.00,,,0.00,,2013-04-07 20:13:00,
2013-04-07 15:22:00,66.0,45.0,29.70,SSE,157,7.0,15.0,47,0.00,,,0.00,,2013-04-07 20:22:00,
2013-04-07 15:33:00,66.0,45.0,29.70,SE,137,8.0,14.0,46,0.00,,,0.00,,2013-04-07 20:33:00,
2013-04-07 15:43:00,66.0,45.0,29.70,SE,137,8.0,14.0,46,0.00,,,0.00,,2013-04-07 20:43:00,
2013-04-07 15:52:00,67.0,46.0,29.69,ESE,120,5.0,10.0,46,0.00,,,0.00,,2013-04-07 20:52:00,
2013-04-07 16:03:00,70.0,45.0,29.67,SE,138,4.0,12.0,41,0.00,,,0.00,,2013-04-07 21:03:00,
2013-04-07 16:13:00,70.0,45.0,29.67,SE,138,4.0,12.0,41,0.00,,,0.00,,2013-04-07 21:13:00,
2013-04-07 16:22:00,72.0,43.0,29.67,SSE,165,8.0,18.0,35,0.00,,,0.00,,2013-04-07 21:22:00,
2013-04-07 16:34:00,71.0,43.0,29.66,SSW,195,3.0,9.0,37,0.00,,,0.00,,2013-04-07 21:34:00,
2013-04-07 16:43:00,71.0,43.0,29.66,SSW,195,3.0,9.0,37,0.00,,,0.00,,2013-04-07 21:43:00,
2013-04-07 16:53:00,71.0,43.0,29.65,South,175,4.0,13.0,37,0.00,,,0.00,,2013-04-07 21:53:00,
2013-04-07 17:03:00,71.0,43.0,29.65,SSW,206,5.0,10.0,37,0.00,,,0.00,,2013-04-07 22:03:00,
2013-04-07 17:14:00,71.0,43.0,29.65,SSW,206,5.0,10.0,37,0.00,,,0.00,,2013-04-07 22:14:00,
2013-04-07 17:23:00,71.0,43.0,29.64,SSE,159,4.0,8.0,37,0.00,,,0.00,,2013-04-07 22:23:00,
2013-04-07 17:34:00,70.0,42.0,29.65,SSW,192,11.0,23.0,36,0.00,,,0.00,,2013-04-07 22:34:00,
2013-04-07 17:43:00,70.0,42.0,29.65,SSW,192,11.0,23.0,36,0.00,,,0.00,,2013-04-07 22:43:00,
2013-04-07 17:53:00,64.0,47.0,29.67,SSW,204,11.0,26.0,53,0.00,,,0.00,,2013-04-07 22:53:00,
2013-04-07 18:03:00,64.0,48.0,29.66,SSW,200,2.0,9.0,57,0.00,,,0.00,,2013-04-07 23:03:00,
2013-04-07 18:13:00,64.0,48.0,29.66,SSW,200,2.0,9.0,57,0.00,,,0.00,,2013-04-07 23:13:00,
2013-04-07 18:22:00,63.0,48.0,29.64,West,265,3.0,6.0,57,0.00,,,0.00,,2013-04-07 23:22:00,
2013-04-07 18:32:00,63.0,48.0,29.64,West,261,0.0,2.0,58,0.00,,,0.00,,2013-04-07 23:32:00,
2013-04-07 18:43:00,63.0,48.0,29.64,West,261,0.0,2.0,58,0.00,,,0.00,,2013-04-07 23:43:00,
2013-04-07 18:52:00,64.0,48.0,29.62,West,261,0.0,0.0,56,0.00,,,0.00,,2013-04-07 23:52:00,
2013-04-07 19:02:00,65.0,48.0,29.63,West,261,0.0,0.0,54,0.00,,,0.00,,2013-04-08 00:02:00,
2013-04-07 19:12:00,65.0,48.0,29.63,West,261,0.0,0.0,54,0.00,,,0.00,,2013-04-08 00:12:00,
2013-04-07 19:22:00,64.0,47.0,29.62,East,86,3.0,7.0,55,0.00,,,0.00,,2013-04-08 00:22:00,
2013-04-07 19:32:00,64.0,48.0,29.62,East,88,1.0,6.0,56,0.00,,,0.00,,2013-04-08 00:32:00,
2013-04-07 19:42:00,64.0,48.0,29.62,East,88,1.0,6.0,56,0.00,,,0.00,,2013-04-08 00:42:00,
2013-04-07 19:52:00,63.0,47.0,29.61,East,88,2.0,5.0,56,0.00,,,0.00,,2013-04-08 00:52:00,
2013-04-07 20:03:00,63.0,48.0,29.61,East,88,0.0,0.0,57,0.00,,,0.00,,2013-04-08 01:03:00,
2013-04-07 20:12:00,63.0,48.0,29.61,East,88,0.0,0.0,57,0.00,,,0.00,,2013-04-08 01:12:00,
2013-04-07 20:22:00,62.0,47.0,29.61,East,88,1.0,3.0,58,0.00,,,0.00,,2013-04-08 01:22:00,
2013-04-07 20:33:00,62.0,47.0,29.60,East,88,0.0,0.0,59,0.00,,,0.00,,2013-04-08 01:33:00,
2013-04-07 20:43:00,62.0,47.0,29.60,East,88,0.0,0.0,59,0.00,,,0.00,,2013-04-08 01:43:00,
2013-04-07 20:53:00,62.0,48.0,29.61,East,88,0.0,2.0,60,0.00,,,0.00,,2013-04-08 01:53:00,
2013-04-07 21:02:00,61.0,47.0,29.61,NNE,12,3.0,5.0,61,0.00,,,0.00,,2013-04-08 02:02:00,
2013-04-07 21:12:00,61.0,47.0,29.61,NNE,12,3.0,5.0,61,0.00,,,0.00,,2013-04-08 02:12:00,
2013-04-07 21:22:00,60.0,49.0,29.61,NNW,338,4.0,8.0,66,0.00,,,0.00,,2013-04-08 02:22:00,
2013-04-07 21:33:00,58.0,47.0,29.62,NW,304,10.0,16.0,68,0.00,,,0.00,,2013-04-08 02:33:00,
2013-04-07 21:46:00,58.0,47.0,29.62,NW,304,10.0,16.0,68,0.00,,,0.00,,2013-04-08 02:46:00,
2013-04-07 21:53:00,57.0,47.0,29.62,NNW,327,8.0,20.0,69,0.00,,,0.00,,2013-04-08 02:53:00,
2013-04-07 22:07:00,56.0,47.0,29.62,NNW,348,5.0,13.0,73,0.00,,,0.00,,2013-04-08 03:07:00,
2013-04-07 22:15:00,56.0,47.0,29.62,NNW,348,5.0,13.0,73,0.00,,,0.00,,2013-04-08 03:15:00,
2013-04-07 22:24:00,56.0,47.0,29.63,NNW,344,2.0,8.0,73,0.00,,,0.00,,2013-04-08 03:24:00,
2013-04-07 22:34:00,56.0,47.0,29.62,North,355,5.0,10.0,73,0.00,,,0.00,,2013-04-08 03:34:00,
2013-04-07 22:47:00,56.0,47.0,29.62,North,355,5.0,10.0,73,0.00,,,0.00,,2013-04-08 03:47:00,
2013-04-07 22:53:00,56.0,47.0,29.62,North,5,3.0,8.0,73,0.00,,,0.00,,2013-04-08 03:53:00,
2013-04-07 23:03:00,56.0,47.0,29.62,NNW,328,0.0,3.0,73,0.00,,,0.00,,2013-04-08 04:03:00,
2013-04-07 23:12:00,56.0,47.0,29.62,NNW,328,0.0,3.0,73,0.00,,,0.00,,2013-04-08 04:12:00,
2013-04-07 23:23:00,55.0,48.0,29.64,SSW,203,2.0,9.0,78,0.00,,,0.00,,2013-04-08 04:23:00,
2013-04-07 23:33:00,54.0,48.0,29.65,SSW,211,5.0,11.0,80,0.01,,,0.01,,2013-04-08 04:33:00,
2013-04-07 23:44:00,54.0,48.0,29.65,SSW,211,5.0,11.0,80,0.01,,,0.01,,2013-04-08 04:44:00,
2013-04-07 23:52:00,53.0,49.0,29.62,SSE,166,10.0,16.0,85,0.02,,,0.02,,2013-04-08 04:52:00,